This is the latest recevied weather packets stored in our database for station/object K8RRT. If no packets are shown the sender has not sent any weather packets the latest 10 day(s).
| Time | Temp. | Humidity | Pressure | Rain* | Wind** | Luminosity | Snow |
|---|---|---|---|---|---|---|---|
| 1778016621 | 24.44° C | 49% | 1005.1 hPa | 0 mm | - | 233 W/m² | - |
| 1778016318 | 23.89° C | 47% | 1005.2 hPa | 0 mm | - | 321 W/m² | - |
| 1778016015 | 23.89° C | 48% | 1005.1 hPa | 0 mm | - | 322 W/m² | - |
| 1778015712 | 23.89° C | 48% | 1005.1 hPa | 0 mm | - | 265 W/m² | - |
| 1778015409 | 23.89° C | 50% | 1005.3 hPa | 0 mm | - | 236 W/m² | - |
| 1778015105 | 23.89° C | 49% | 1005.1 hPa | 0 mm | - | 219 W/m² | - |
| 1778014802 | 23.89° C | 49% | 1005.4 hPa | 0 mm | - | 172 W/m² | - |
| 1778014501 | 23.89° C | 48% | 1005.4 hPa | 0 mm | - | 193 W/m² | - |
| 1778014197 | 23.89° C | 47% | 1005.4 hPa | 0 mm | - | 196 W/m² | - |
| 1778013895 | 23.89° C | 49% | 1005.4 hPa | 0 mm | - | 191 W/m² | - |
| 1778013592 | 24.44° C | 48% | 1005.5 hPa | 0 mm | - | 279 W/m² | - |
| 1778013288 | 25° C | 48% | 1005.8 hPa | 0 mm | - | 410 W/m² | - |
| 1778012985 | 24.44° C | 48% | 1005.8 hPa | 0 mm | - | 524 W/m² | - |
| 1778012682 | 24.44° C | 50% | 1005.8 hPa | 0 mm | - | 326 W/m² | - |
| 1778012377 | 23.89° C | 51% | 1005.7 hPa | 0 mm | - | 313 W/m² | - |
| 1778012075 | 23.89° C | 51% | 1005.9 hPa | 0 mm | - | 288 W/m² | - |
| 1778011773 | 23.89° C | 51% | 1005.9 hPa | 0 mm | - | 229 W/m² | - |
| 1778011470 | 23.89° C | 50% | 1006 hPa | 0 mm | - | 234 W/m² | - |
| 1778011165 | 23.33° C | 51% | 1005.8 hPa | 0 mm | - | 249 W/m² | - |
| 1778010863 | 23.33° C | 51% | 1005.9 hPa | 0 mm | - | 224 W/m² | - |
| 1778010560 | 23.33° C | 50% | 1006.2 hPa | 0 mm | - | 229 W/m² | - |
| 1778010258 | 23.33° C | 50% | 1006.1 hPa | 0 mm | - | 254 W/m² | - |
| 1778009957 | 23.89° C | 50% | 1006.4 hPa | 0 mm | - | 226 W/m² | - |
| 1778009655 | 23.89° C | 51% | 1006.3 hPa | 0 mm | - | 289 W/m² | - |
| 1778009353 | 23.89° C | 50% | 1006.5 hPa | 0 mm | - | 249 W/m² | - |
* Rain latest hour (hover to see other rain measurements)
** Current wind speed in m/s (hover to see current wind gust speed)